Location: Wiesbaden
(50.0830°N, 8.2500°E)
Time: 20:34:46
(UTC+02:00)

ISS - Pass Details

Date: 14 July 2019
Orbit: 409 x 418 km, 51.6° (Epoch: 20 July)

Event Time Altitude Azimuth Distance (km) Brightness Sun altitude
Exits shadow 03:09:09 - 275° (W) 2,011 -0.5 -15.1°
Reaches altitude 10° 03:10:27 10° 277° (W) 1,483 -1.1 -15.0°
Maximum altitude 03:13:45 64° 0° (N) 461 -3.4 -14.8°
Drops below altitude 10° 03:17:03 10° 83° (E) 1,479 -0.6 -14.6°
Sets 03:19:09 0° 87° (E) 2,340 0.4 -14.4°
